GW6539 Weather Reports


time (UTC)temp
C
wind
direction
speed
KPH
gust
KPH
rain 1hr
cm
rain 24hr
cm
rain mn
cm
humidity
%
barometer
mb
20260507125535 27 42 9.7 14.5 0.00 0.18 0.18 84 1011.1
20260507125032 27 57 11.3 14.5 0.00 0.18 0.18 84 1011.5
20260507124529 27 42 9.7 14.5 0.00 0.18 0.18 85 1011.5
20260507124026 27 39 11.3 14.5 0.00 0.18 0.18 85 1011.5
20260507123525 27 48 9.7 9.7 0.00 0.18 0.18 85 1011.5
20260507123021 27 51 9.7 12.9 0.00 0.18 0.18 85 1011.5
20260507122516 27 51 12.9 16.1 0.00 0.18 0.18 85 1011.5
20260507122012 27 46 11.3 14.5 0.00 0.18 0.18 85 1011.1
20260507121508 27 45 9.7 12.9 0.00 0.18 0.18 85 1011.1
20260507121004 27 47 8.0 14.5 0.00 0.18 0.18 85 1011.1
20260507120500 27 49 12.9 17.7 0.00 0.18 0.18 85 1011.1
20260507115957 27 52 14.5 22.5 0.00 0.18 0.18 85 1011.1
20260507115454 27 56 12.9 14.5 0.00 0.18 0.18 85 1011.1
20260507114949 27 56 17.7 20.9 0.00 0.18 0.18 85 1011.1
20260507114446 27 46 14.5 16.1 0.00 0.18 0.18 84 1011.1
20260507113943 27 50 16.1 25.7 0.00 0.18 0.18 85 1011.1
20260507113440 27 42 12.9 17.7 0.00 0.18 0.18 85 1011.1
20260507112937 27 26 9.7 11.3 0.00 0.18 0.18 85 1011.1
20260507112435 27 40 9.7 14.5 0.00 0.18 0.18 85 1011.1
20260507111931 27 33 9.7 11.3 0.00 0.18 0.18 85 1011.1
20260507111429 27 37 9.7 12.9 0.00 0.18 0.18 85 1011.1
20260507110925 27 30 9.7 11.3 0.00 0.18 0.18 85 1011.1
20260507110421 27 42 9.7 11.3 0.00 0.18 0.18 85 1010.8
20260507105918 27 27 12.9 17.7 0.00 0.18 0.18 86 1010.8
20260507105415 27 40 11.3 14.5 0.00 0.18 0.18 87 1011.1
20260507104912 27 58 8.0 9.7 0.00 0.18 0.18 87 1011.1
20260507104408 27 52 9.7 14.5 0.00 0.18 0.18 88 1011.1
20260507103904 27 58 9.7 11.3 0.00 0.18 0.18 88 1010.8
20260507103401 27 57 12.9 16.1 1.19 0.08 0.08 86 1010.8
20260507102857 27 73 16.1 20.9 0.00 0.05 0.05 84 1010.8
20260507102354 27 63 14.5 17.7 0.00 0.05 0.05 82 1010.8
20260507101850 28 48 12.9 19.3 0.00 0.05 0.05 81 1010.8
20260507101350 28 47 16.1 20.9 0.00 0.05 0.05 82 1010.5
20260507100848 28 35 9.7 12.9 0.00 0.05 0.05 82 1010.5
20260507100346 28 45 8.0 11.3 0.00 0.05 0.05 81 1010.5
20260507095843 27 36 9.7 12.9 0.00 0.05 0.05 81 1010.5
20260507095340 27 22 9.7 14.5 0.00 0.05 0.05 81 1010.5
20260507094837 27 37 11.3 14.5 0.00 0.05 0.05 82 1010.5
20260507094333 28 42 12.9 16.1 0.00 0.05 0.05 81 1010.5
20260507093831 27 53 16.1 19.3 0.00 0.05 0.05 82 1010.5
20260507093329 27 40 9.7 14.5 0.00 0.05 0.05 82 1010.5
20260507092826 27 44 11.3 14.5 0.00 0.05 0.05 82 1010.5
20260507092323 27 52 11.3 14.5 0.00 0.05 0.05 82 1010.1
20260507091819 27 53 12.9 17.7 0.00 0.05 0.05 82 1010.5
20260507091316 27 49 9.7 14.5 0.00 0.05 0.05 82 1010.5
20260507090811 27 54 11.3 14.5 0.00 0.05 0.05 82 1010.1
20260507090308 27 47 9.7 12.9 0.00 0.05 0.05 82 1010.5
20260507085805 27 30 9.7 14.5 0.00 0.05 0.05 82 1010.1
20260507085305 27 50 9.7 12.9 0.00 0.05 0.05 82 1010.1
20260507084759 27 41 8.0 9.7 0.00 0.05 0.05 82 1010.1
20260507084255 27 55 9.7 11.3 0.00 0.05 0.05 81 1010.1
20260507083753 27 77 9.7 19.3 0.00 0.05 0.05 81 1009.8
20260507083249 28 73 12.9 17.7 0.00 0.05 0.05 80 1009.8
20260507082745 28 59 17.7 20.9 0.00 0.05 0.05 79 1009.8
20260507082241 28 62 24.1 30.6 0.00 0.05 0.05 77 1009.8
20260507081738 28 66 17.7 24.1 0.00 0.05 0.05 79 1009.4
20260507081234 28 61 17.7 24.1 0.00 0.05 0.05 79 1009.4
20260507080731 28 64 17.7 22.5 0.00 0.05 0.05 78 1009.4
20260507080227 28 39 19.3 25.7 0.00 0.05 0.05 78 1009.4
20260507075723 28 54 20.9 27.4 0.00 0.05 0.05 78 1009.4
20260507075219 29 40 14.5 17.7 0.00 0.05 0.05 79 1009.4
20260507074715 28 54 19.3 22.5 0.00 0.05 0.05 79 1009.4
20260507074214 29 54 20.9 25.7 0.00 0.05 0.05 79 1009.4
20260507073710 29 45 14.5 22.5 0.00 0.05 0.05 78 1009.4
20260507073206 29 61 12.9 14.5 0.00 0.05 0.05 78 1009.4
20260507072705 28 60 14.5 20.9 0.00 0.05 0.05 78 1009.4
20260507072201 28 69 19.3 20.9 0.00 0.05 0.05 78 1009.4
20260507071659 28 58 16.1 20.9 0.00 0.05 0.05 77 1009.4
20260507071155 28 62 19.3 24.1 0.00 0.05 0.05 76 1009.4
20260507070652 29 56 20.9 25.7 0.00 0.05 0.05 74 1009.1
20260507070149 30 58 19.3 27.4 0.00 0.05 0.05 73 1009.1
20260507065645 30 65 19.3 24.1 0.00 0.05 0.05 73 1009.1
20260507065142 30 56 27.4 33.8 0.00 0.05 0.05 72 1009.1
20260507064640 30 64 24.1 32.2 0.00 0.05 0.05 72 1009.1
20260507064138 30 53 20.9 27.4 0.00 0.05 0.05 73 1009.1
20260507063636 30 52 20.9 33.8 0.00 0.05 0.05 73 1009.1
20260507063132 30 53 25.7 30.6 0.00 0.05 0.05 73 1009.1
20260507062629 30 61 32.2 38.6 0.00 0.05 0.05 72 1009.1
20260507062127 30 52 30.6 41.8 0.00 0.05 0.05 73 1009.1
20260507061624 30 66 22.5 29.0 0.00 0.05 0.05 72 1009.1
20260507061122 30 64 27.4 33.8 0.00 0.05 0.05 72 1009.1
20260507060620 30 58 25.7 33.8 0.00 0.05 0.05 72 1009.1
20260507060116 30 61 25.7 33.8 0.00 0.05 0.05 71 1009.1
20260507055612 30 65 27.4 37.0 0.00 0.05 0.05 69 1009.1
20260507055108 30 59 30.6 41.8 0.00 0.05 0.05 70 1009.1
20260507054604 30 57 29.0 40.2 0.00 0.05 0.05 71 1009.1
20260507054101 30 49 25.7 35.4 0.00 0.05 0.05 73 1008.8
20260507053559 30 63 20.9 25.7 0.00 0.05 0.05 73 1009.1
20260507053058 30 70 29.0 37.0 0.00 0.05 0.05 71 1008.8
20260507052555 30 58 24.1 37.0 0.00 0.05 0.05 71 1008.8
20260507052051 30 58 24.1 30.6 0.00 0.05 0.05 71 1008.8
20260507051549 30 72 24.1 32.2 0.00 0.05 0.05 72 1008.8
20260507051046 30 44 27.4 33.8 0.00 0.05 0.05 70 1009.1
20260507050542 30 59 25.7 33.8 0.00 0.05 0.05 70 1009.1
20260507050039 30 59 25.7 35.4 0.00 0.05 0.05 74 1009.1
20260507045536 30 63 25.7 32.2 0.00 0.05 0.05 74 1009.1
20260507045033 30 89 20.9 30.6 0.00 0.05 0.05 73 1009.1
20260507044529 30 77 19.3 29.0 0.00 0.05 0.05 72 1009.1
20260507044026 30 75 24.1 29.0 0.00 0.05 0.05 71 1009.1
20260507043522 30 68 22.5 27.4 0.00 0.05 0.05 72 1009.1
20260507043020 30 69 27.4 35.4 0.00 0.05 0.05 72 1009.1
20260507042516 30 72 25.7 32.2 0.00 0.05 0.05 73 1009.4
20260507042011 30 86 17.7 29.0 0.00 0.05 0.05 74 1009.4
20260507041509 30 74 25.7 30.6 0.00 0.05 0.05 74 1009.4
20260507041005 30 81 17.7 24.1 0.00 0.05 0.05 73 1009.4
20260507040501 30 78 20.9 25.7 0.00 0.05 0.05 72 1009.8
20260507035957 30 62 20.9 27.4 0.00 0.05 0.05 71 1009.8
20260507035454 30 89 22.5 29.0 0.00 0.05 0.05 71 1009.8
20260507034950 30 89 20.9 25.7 0.00 0.05 0.05 71 1009.8
20260507034447 30 65 29.0 37.0 0.00 0.05 0.05 71 1009.8
20260507033945 30 69 30.6 37.0 0.00 0.05 0.05 74 1009.8
20260507033443 30 64 27.4 30.6 0.00 0.05 0.05 73 1010.1
20260507032940 30 76 24.1 32.2 0.00 0.05 0.05 72 1009.8
20260507032437 30 62 22.5 30.6 0.00 0.05 0.05 72 1010.1
20260507031933 30 97 17.7 32.2 0.00 0.05 0.05 72 1010.1
20260507031429 30 74 25.7 33.8 0.00 0.05 0.05 72 1010.1
20260507030926 30 69 27.4 33.8 0.00 0.05 0.05 71 1010.1
20260507030424 30 67 27.4 37.0 0.00 0.05 0.05 74 1010.1
20260507025921 30 92 17.7 24.1 0.00 0.05 0.05 76 1010.1
20260507025418 30 87 14.5 20.9 0.00 0.05 0.05 78 1010.5
20260507024916 30 42 20.9 29.0 0.00 0.05 0.05 78 1010.5
20260507024413 30 80 27.4 33.8 0.00 0.05 0.05 76 1010.5
20260507023908 30 67 22.5 30.6 0.00 0.05 0.05 76 1010.5
20260507023405 30 70 22.5 29.0 0.00 0.05 0.05 78 1010.5
20260507022903 29 61 17.7 25.7 0.00 0.05 0.05 79 1010.5
20260507022359 29 93 16.1 22.5 0.00 0.05 0.05 80 1010.5
20260507021855 29 71 16.1 22.5 0.00 0.05 0.05 84 1010.8
20260507021350 27 76 8.0 9.7 0.00 0.05 0.05 85 1010.8
20260507020848 27 90 11.3 12.9 0.00 0.05 0.05 85 1011.1
20260507020345 27 93 9.7 14.5 0.00 0.05 0.05 85 1011.1
20260507015842 26 89 14.5 19.3 0.00 0.05 0.05 85 1011.1
20260507015340 27 78 17.7 24.1 0.00 0.03 0.03 84 1011.1
20260507014837 27 93 20.9 33.8 0.00 0.00 0.00 81 1011.1
20260507014333 29 85 32.2 43.5 0.00 0.00 0.00 79 1011.1
20260507013830 28 88 16.1 20.9 0.00 0.00 0.00 80 1011.1
20260507013327 28 90 19.3 25.7 0.00 0.00 0.00 81 1011.1
20260507012824 29 70 24.1 29.0 0.00 0.00 0.00 77 1011.1
20260507012320 30 85 19.3 24.1 0.00 0.00 0.00 75 1011.1
20260507011817 29 102 19.3 29.0 0.00 0.00 0.00 75 1011.1
20260507011314 30 72 24.1 29.0 0.00 0.00 0.00 75 1011.1
20260507010814 29 86 27.4 35.4 0.00 0.00 0.00 74 1011.1
20260507010310 30 77 24.1 30.6 0.00 0.00 0.00 73 1011.1
20260507005807 30 67 22.5 30.6 0.00 0.00 0.00 75 1011.5
20260507005305 30 67 24.1 30.6 0.00 0.00 0.00 74 1011.5
20260507004800 30 72 20.9 24.1 0.00 0.00 0.00 73 1011.5
20260507004258 30 79 20.9 27.4 0.00 0.00 0.00 74 1011.5
20260507003754 30 65 20.9 29.0 0.00 0.00 0.00 73 1011.5
20260507003249 30 91 27.4 35.4 0.00 0.00 0.00 72 1011.8
20260507002745 30 77 14.5 19.3 0.00 0.00 0.00 75 1011.5
20260507002242 30 61 24.1 30.6 0.00 0.00 0.00 74 1011.5
20260507001739 30 88 20.9 32.2 0.00 0.00 0.00 73 1011.8
20260507001236 30 89 19.3 27.4 0.00 0.00 0.00 74 1011.8
20260507000732 30 64 19.3 27.4 0.00 0.00 0.00 73 1011.8
20260507000228 30 88 20.9 29.0 0.00 0.00 0.00 73 1011.8
20260506235725 30 83 24.1 33.8 0.00 0.00 0.00 72 1011.8
20260506235220 30 74 24.1 29.0 0.00 0.00 0.00 73 1011.8
20260506234718 30 56 27.4 30.6 0.00 0.00 0.00 73 1011.8
20260506234215 30 76 19.3 27.4 0.00 0.00 0.00 73 1011.8
20260506233712 30 68 20.9 30.6 0.00 0.00 0.00 74 1011.8
20260506233209 29 53 20.9 25.7 0.00 0.00 0.00 76 1011.8
20260506232706 29 95 24.1 33.8 0.00 0.00 0.00 76 1011.8
20260506232200 29 67 22.5 29.0 0.00 0.00 0.00 78 1011.8
20260506231658 28 76 24.1 29.0 0.00 0.00 0.00 79 1011.8
20260506231156 28 76 19.3 24.1 0.00 0.00 0.00 79 1011.8
20260506230652 29 62 19.3 24.1 0.00 0.00 0.00 78 1011.8
20260506230149 29 66 20.9 25.7 0.00 0.00 0.00 79 1011.8
20260506225646 28 68 20.9 25.7 0.00 0.00 0.00 79 1011.5
20260506225143 28 68 22.5 27.4 0.00 0.00 0.00 79 1011.5
20260506224639 28 85 19.3 27.4 0.00 0.00 0.00 79 1011.5
20260506224136 28 74 14.5 20.9 0.00 0.00 0.00 80 1011.5
20260506223632 28 57 14.5 20.9 0.00 0.00 0.00 81 1011.5
20260506223128 28 65 16.1 22.5 0.00 0.00 0.00 80 1011.5
20260506222625 28 69 12.9 17.7 0.00 0.00 0.00 80 1011.5
20260506222122 28 85 14.5 20.9 0.00 0.00 0.00 81 1011.5
20260506221619 28 66 14.5 20.9 0.00 0.00 0.00 81 1011.5
20260506221117 28 63 19.3 22.5 0.00 0.00 0.00 82 1011.5
20260506220614 28 67 14.5 20.9 0.00 0.00 0.00 83 1011.5
20260506220109 28 57 14.5 16.1 0.00 0.00 0.00 83 1011.5
20260506215606 28 71 9.7 14.5 0.00 0.00 0.00 83 1011.5
20260506215101 27 83 9.7 12.9 0.00 0.00 0.00 84 1011.5
20260506214559 27 65 9.7 9.7 0.00 0.00 0.00 84 1011.5
20260506214056 27 59 9.7 12.9 0.00 0.00 0.00 84 1011.5
20260506213554 27 60 9.7 12.9 0.00 0.00 0.00 84 1011.1
20260506213051 27 54 9.7 12.9 0.00 0.00 0.00 84 1011.1
20260506212547 27 54 8.0 11.3 0.00 0.00 0.00 84 1011.5
20260506212042 27 57 9.7 12.9 0.00 0.00 0.00 84 1011.5
20260506211538 27 53 9.7 12.9 0.00 0.00 0.00 84 1011.5
20260506211036 27 49 9.7 11.3 0.00 0.00 0.00 84 1011.5
20260506210532 26 44 6.4 8.0 0.00 0.00 0.00 85 1011.5
20260506210029 26 47 11.3 16.1 0.00 0.00 0.00 85 1011.5
20260506205526 26 51 11.3 14.5 0.00 0.00 0.00 86 1011.5
20260506205021 26 60 11.3 12.9 0.00 0.00 0.00 87 1011.1
20260506204519 26 60 11.3 14.5 0.00 0.00 0.00 87 1011.1
20260506204016 26 60 9.7 11.3 0.00 0.00 0.00 87 1011.1
20260506203514 26 51 8.0 9.7 0.00 0.00 0.00 87 1011.1
20260506203010 26 50 6.4 8.0 0.00 0.00 0.00 88 1011.1
20260506202508 26 50 6.4 6.4 0.00 0.00 0.00 88 1011.1
20260506202004 26 50 4.8 6.4 0.00 0.00 0.00 88 1011.1
20260506201502 26 50 4.8 6.4 0.00 0.00 0.00 88 1011.1
20260506200958 26 50 4.8 6.4 0.00 0.00 0.00 88 1011.1
20260506200454 26 50 3.2 4.8 0.00 0.00 0.00 88 1011.1
20260506195951 26 50 6.4 6.4 0.00 0.00 0.00 87 1011.1
20260506195448 26 59 6.4 6.4 0.00 0.00 0.00 87 1011.1
20260506194944 26 59 8.0 9.7 0.00 0.00 0.00 87 1010.8
20260506194442 26 49 6.4 9.7 0.00 0.00 0.00 87 1010.8
20260506193938 26 49 6.4 8.0 0.00 0.00 0.00 87 1011.1
20260506193436 26 49 4.8 6.4 0.00 0.00 0.00 87 1010.8
20260506192932 26 53 8.0 8.0 0.00 0.00 0.00 87 1010.8
20260506192429 26 56 4.8 6.4 0.00 0.00 0.00 87 1010.8
20260506191926 26 60 8.0 9.7 0.00 0.00 0.00 87 1010.8
20260506191422 26 65 9.7 12.9 0.00 0.00 0.00 87 1010.8
20260506190919 26 58 9.7 12.9 0.00 0.00 0.00 88 1010.8
20260506190416 26 61 14.5 19.3 0.00 0.00 0.00 87 1010.8
20260506185913 26 47 12.9 16.1 0.00 0.00 0.00 87 1010.8
20260506185410 26 51 6.4 9.7 0.00 0.00 0.00 87 1010.8
20260506184907 26 50 6.4 8.0 0.00 0.00 0.00 87 1010.5
20260506184404 26 46 8.0 9.7 0.00 0.00 0.00 87 1010.5
20260506183901 26 54 4.8 6.4 0.00 0.00 0.00 87 1010.5
20260506183356 26 56 8.0 9.7 0.00 0.00 0.00 86 1010.5
20260506182854 26 54 6.4 8.0 0.00 0.00 0.00 86 1010.8
20260506182351 26 62 8.0 9.7 0.00 0.00 0.00 86 1010.8
20260506181848 26 52 6.4 8.0 0.00 0.00 0.00 87 1010.8
20260506181346 26 50 4.8 6.4 0.00 0.00 0.00 87 1010.8
20260506180843 26 50 6.4 6.4 0.00 0.00 0.00 87 1010.8
20260506180339 26 50 3.2 4.8 0.00 0.00 0.00 87 1010.8
20260506175835 26 50 4.8 6.4 0.00 0.00 0.00 87 1010.8
20260506175332 26 50 6.4 8.0 0.00 0.00 0.00 87 1010.5
20260506174829 26 50 6.4 8.0 0.00 0.00 0.00 87 1010.5
20260506174327 26 57 6.4 8.0 0.00 0.00 0.00 87 1010.8
20260506173824 26 60 6.4 8.0 0.00 0.00 0.00 87 1010.8
20260506173321 26 69 6.4 8.0 0.00 0.00 0.00 87 1010.8
20260506172818 26 50 6.4 8.0 0.00 0.00 0.00 87 1010.8
20260506172315 26 50 6.4 8.0 0.00 0.00 0.00 87 1010.8
20260506171812 26 50 4.8 6.4 0.00 0.00 0.00 88 1010.5
20260506171309 26 89 3.2 4.8 0.00 0.00 0.00 88 1010.5
20260506170807 26 54 4.8 4.8 0.00 0.00 0.00 88 1010.5
20260506170303 26 54 4.8 6.4 0.00 0.00 0.00 87 1010.8
20260506165802 26 54 3.2 4.8 0.00 0.00 0.00 87 1010.8
20260506165259 26 54 1.6 4.8 0.00 0.00 0.00 87 1010.8
20260506164755 26 54 3.2 6.4 0.00 0.00 0.00 87 1010.8
20260506164252 26 54 3.2 4.8 0.00 0.00 0.00 87 1010.8
20260506163749 26 54 4.8 4.8 0.00 0.00 0.00 87 1010.8
20260506163244 26 54 4.8 4.8 0.00 0.00 0.00 87 1011.1
20260506162740 26 54 4.8 6.4 0.00 0.00 0.00 87 1011.1
20260506162238 26 54 6.4 6.4 0.00 0.00 0.00 87 1011.1
20260506161735 26 63 6.4 6.4 0.00 0.00 0.00 87 1011.1
20260506161232 26 72 8.0 11.3 0.00 0.00 0.00 87 1011.5
20260506153039 26 75 9.7 11.3 0.00 0.00 0.00 87 1011.5
20260506152536 26 75 9.7 11.3 0.00 0.00 0.00 87 1011.5
20260506152034 26 76 9.7 12.9 0.00 0.00 0.00 87 1011.5
20260506151532 26 83 9.7 11.3 0.00 0.00 0.00 87 1011.5
20260506151029 26 75 8.0 9.7 0.00 0.00 0.00 88 1011.5
20260506150525 26 74 8.0 11.3 0.00 0.00 0.00 88 1011.5
20260506150022 26 55 8.0 11.3 0.00 0.00 0.00 88 1011.5
20260506145519 26 54 4.8 6.4 0.00 0.00 0.00 88 1011.5
20260506145016 26 72 4.8 6.4 0.00 0.00 0.00 88 1011.8
20260506144513 26 81 4.8 6.4 0.00 0.00 0.00 87 1011.8
20260506144011 26 63 6.4 8.0 0.00 0.00 0.00 87 1011.8
20260506143508 26 61 6.4 9.7 0.00 0.00 0.00 87 1012.2
20260506143007 26 73 9.7 11.3 0.00 0.00 0.00 87 1012.2
20260506142504 26 63 6.4 6.4 0.00 0.00 0.00 87 1012.2
20260506142001 26 45 0.0 4.8 0.00 0.00 0.00 87 1012.2
20260506141459 26 45 4.8 4.8 0.00 0.00 0.00 87 1012.2
20260506140957 26 45 1.6 4.8 0.00 0.00 0.00 87 1012.2
20260506140454 26 45 6.4 6.4 0.00 0.00 0.00 87 1012.5
20260506135951 26 45 4.8 6.4 0.00 0.46 0.46 87 1012.5
20260506135448 26 56 4.8 8.0 0.00 0.46 0.46 87 1012.5
20260506134944 26 56 4.8 4.8 0.00 0.46 0.46 87 1012.5
20260506134440 26 56 4.8 6.4 0.00 0.46 0.46 86 1012.5
20260506133937 27 56 6.4 6.4 0.00 0.46 0.46 86 1012.5
20260506133434 27 63 6.4 6.4 0.00 0.46 0.46 86 1012.5
20260506132931 27 60 8.0 11.3 0.00 0.46 0.46 86 1012.5
20260506132428 27 60 6.4 6.4 0.00 0.46 0.46 86 1012.5
20260506131925 27 60 8.0 9.7 0.00 0.46 0.46 86 1012.5
20260506131422 27 60 8.0 9.7 0.00 0.46 0.46 86 1012.8
20260506130919 27 59 6.4 6.4 0.00 0.46 0.46 86 1012.8
20260506130415 27 64 6.4 8.0 0.00 0.46 0.46 86 1012.8